• In Uzbekistan
  • List of Countries
  • For 7 days
  • Water Temperature
  • Satellite Maps
  • Weather Map
  • Weather Widgets
  • user-avatar
    Login

    Hourly Weather Baku

    Today, 24 October, Wednesday

    Time Temperature Precipitation Wind Pressure Humidity
    00:00 +20°C° 0 mm 1 mps 760 mmHg 80%
    01:00 +19°C° 0 mm 2 mps 760 mmHg 80%
    02:00 +19°C° 0 mm 2 mps 760 mmHg 80%
    03:00 +19°C° 0 mm 3 mps 759 mmHg 80%
    04:00 +19°C° 0 mm 4 mps 759 mmHg 80%
    05:00 +19°C° 0 mm 4 mps 759 mmHg 80%
    06:00 +19°C° 0 mm 5 mps 759 mmHg 80%
    07:00 +20°C° 0 mm 6 mps 758 mmHg 76%
    08:00 +21°C° 0 mm 6 mps 758 mmHg 73%
    09:00 +21°C° 0 mm 7 mps 758 mmHg 69%
    10:00 +22°C° 0 mm 7 mps 757 mmHg 63%
    11:00 +23°C° 0 mm 8 mps 757 mmHg 57%
    12:00 +24°C° 0 mm 8 mps 756 mmHg 51%
    13:00 +24°C° 0 mm 8 mps 755 mmHg 49%
    14:00 +26°C° 0 mm 8 mps 755 mmHg 48%
    15:00 +26°C° 0 mm 9 mps 754 mmHg 46%
    16:00 +24°C° 0 mm 9 mps 754 mmHg 50%
    17:00 +24°C° 0 mm 9 mps 753 mmHg 54%
    18:00 +23°C° 0 mm 9 mps 753 mmHg 57%
    19:00 +23°C° 0 mm 9 mps 752 mmHg 56%
    20:00 +23°C° 0 mm 9 mps 752 mmHg 54%
    21:00 +23°C° 0 mm 8 mps 752 mmHg 53%
    22:00 +23°C° 0 mm 8 mps 751 mmHg 50%
    23:00 +23°C° 0 mm 8 mps 751 mmHg 47%

    Tomorrow, 25 October, Thursday

    Time Temperature Precipitation Wind Pressure Humidity
    00:00 +23°C° 0 mm 8 mps 751 mmHg 44%
    01:00 +22°C° 0 mm 8 mps 750 mmHg 42%
    02:00 +22°C° 0 mm 9 mps 750 mmHg 40%
    03:00 +22°C° 0 mm 9 mps 749 mmHg 38%
    04:00 +22°C° 0 mm 10 mps 749 mmHg 38%
    05:00 +22°C° 0 mm 11 mps 749 mmHg 38%
    06:00 +22°C° 0 mm 12 mps 748 mmHg 39%
    07:00 +24°C° 0 mm 12 mps 748 mmHg 36%
    08:00 +26°C° 0 mm 13 mps 748 mmHg 34%
    09:00 +27°C° 0 mm 13 mps 748 mmHg 31%
    10:00 +28°C° 0 mm 13 mps 748 mmHg 31%
    11:00 +28°C° 0 mm 12 mps 748 mmHg 30%
    12:00 +29°C° 0 mm 12 mps 747 mmHg 30%
    13:00 +29°C° 0 mm 11 mps 747 mmHg 30%
    14:00 +29°C° 0 mm 10 mps 746 mmHg 30%
    15:00 +31°C° 0 mm 9 mps 746 mmHg 30%
    16:00 +29°C° 0 mm 8 mps 746 mmHg 33%
    17:00 +28°C° 0 mm 6 mps 746 mmHg 36%
    18:00 +27°C° 0 mm 5 mps 746 mmHg 38%
    19:00 +26°C° 0 mm 5 mps 746 mmHg 42%
    20:00 +26°C° 0 mm 5 mps 747 mmHg 45%
    21:00 +24°C° 0 mm 6 mps 747 mmHg 48%
    22:00 +23°C° 0 mm 8 mps 748 mmHg 58%
    23:00 +21°C° 0 mm 10 mps 749 mmHg 67%

    Day after tomorrow, 26 October, Friday

    Time Temperature Precipitation Wind Pressure Humidity
    00:00 +18°C° 0 mm 13 mps 749 mmHg 76%
    01:00 +18°C° 0 mm 13 mps 750 mmHg 76%
    02:00 +17°C° 0 mm 13 mps 751 mmHg 76%
    03:00 +17°C° 0 mm 14 mps 751 mmHg 76%
    04:00 +15°C° 0.1 mm 13 mps 752 mmHg 75%
    05:00 +15°C° 0.1 mm 13 mps 753 mmHg 74%
    06:00 +14°C° 0.1 mm 13 mps 753 mmHg 73%
    07:00 +14°C° 0 mm 13 mps 754 mmHg 72%
    08:00 +14°C° 0 mm 13 mps 755 mmHg 70%
    09:00 +14°C° 0 mm 13 mps 756 mmHg 68%
    10:00 +14°C° 0 mm 12 mps 756 mmHg 69%
    11:00 +14°C° 0 mm 12 mps 756 mmHg 70%
    12:00 +14°C° 0 mm 12 mps 756 mmHg 71%
    13:00 +14°C° 0 mm 12 mps 756 mmHg 72%
    14:00 +14°C° 0 mm 12 mps 756 mmHg 72%
    15:00 +14°C° 0 mm 11 mps 756 mmHg 73%
    16:00 +13°C° 0.1 mm 11 mps 757 mmHg 73%
    17:00 +13°C° 0.1 mm 11 mps 758 mmHg 73%
    18:00 +13°C° 0.1 mm 11 mps 759 mmHg 73%
    19:00 +13°C° 0.6 mm 10 mps 759 mmHg 74%
    20:00 +13°C° 0.6 mm 9 mps 760 mmHg 76%
    21:00 +12°C° 0.6 mm 8 mps 760 mmHg 77%
    22:00 +14°C° 0.7 mm 7 mps 761 mmHg 76%
    23:00 +14°C° 0.7 mm 6 mps 761 mmHg 75%

    27 October, Saturday

    Time Temperature Precipitation Wind Pressure Humidity
    00:00 +14°C° 0.7 mm 5 mps 761 mmHg 75%
    01:00 +14°C° 0 mm 5 mps 761 mmHg 72%
    02:00 +14°C° 0 mm 5 mps 761 mmHg 69%
    03:00 +14°C° 0 mm 5 mps 761 mmHg 66%
    04:00 +14°C° 0 mm 6 mps 762 mmHg 66%
    05:00 +14°C° 0 mm 7 mps 763 mmHg 66%
    06:00 +14°C° 0 mm 7 mps 764 mmHg 66%
    07:00 +15°C° 0 mm 8 mps 765 mmHg 64%
    08:00 +15°C° 0 mm 8 mps 766 mmHg 62%
    09:00 +16°C° 0 mm 8 mps 767 mmHg 60%
    10:00 +16°C° 0 mm 8 mps 767 mmHg 57%
    11:00 +17°C° 0 mm 7 mps 768 mmHg 54%
    12:00 +17°C° 0 mm 7 mps 768 mmHg 50%
    13:00 +17°C° 0 mm 6 mps 768 mmHg 52%
    14:00 +17°C° 0 mm 6 mps 768 mmHg 54%
    15:00 +17°C° 0 mm 5 mps 769 mmHg 55%
    16:00 +18°C° 0 mm 4 mps 769 mmHg 58%
    17:00 +17°C° 0 mm 3 mps 769 mmHg 61%
    18:00 +17°C° 0 mm 3 mps 770 mmHg 63%
    19:00 +17°C° 0 mm 3 mps 770 mmHg 65%
    20:00 +17°C° 0 mm 3 mps 770 mmHg 67%
    21:00 +17°C° 0 mm 4 mps 770 mmHg 68%
    22:00 +17°C° 0 mm 4 mps 770 mmHg 70%
    23:00 +17°C° 0 mm 4 mps 770 mmHg 71%

    28 October, Sunday

    Time Temperature Precipitation Wind Pressure Humidity
    00:00 +16°C° 0 mm 5 mps 770 mmHg 72%
    01:00 +16°C° 0 mm 5 mps 769 mmHg 72%
    02:00 +16°C° 0 mm 5 mps 769 mmHg 72%
    03:00 +16°C° 0 mm 5 mps 769 mmHg 72%
    04:00 +16°C° 0 mm 6 mps 769 mmHg 72%
    05:00 +16°C° 0 mm 6 mps 769 mmHg 73%
    06:00 +16°C° 0 mm 6 mps 770 mmHg 73%
    07:00 +17°C° 0 mm 6 mps 770 mmHg 70%
    08:00 +18°C° 0 mm 7 mps 770 mmHg 67%
    09:00 +18°C° 0 mm 7 mps 770 mmHg 65%
    10:00 +20°C° 0 mm 7 mps 770 mmHg 62%
    11:00 +20°C° 0 mm 7 mps 769 mmHg 59%
    12:00 +21°C° 0 mm 7 mps 769 mmHg 55%
    13:00 +21°C° 0 mm 7 mps 769 mmHg 54%
    14:00 +21°C° 0 mm 7 mps 769 mmHg 52%
    15:00 +21°C° 0 mm 6 mps 768 mmHg 51%
    16:00 +21°C° 0 mm 6 mps 769 mmHg 54%
    17:00 +20°C° 0 mm 6 mps 769 mmHg 57%
    18:00 +20°C° 0 mm 6 mps 770 mmHg 60%
    19:00 +19°C° 0 mm 5 mps 770 mmHg 62%
    20:00 +19°C° 0 mm 5 mps 770 mmHg 64%
    21:00 +19°C° 0 mm 5 mps 770 mmHg 65%
    22:00 +19°C° 0 mm 4 mps 770 mmHg 65%
    23:00 +18°C° 0 mm 4 mps 770 mmHg 66%

    29 October, Monday

    Time Temperature Precipitation Wind Pressure Humidity
    00:00 +18°C° 0 mm 3 mps 770 mmHg 66%
    01:00 +18°C° 0 mm 3 mps 770 mmHg 66%
    02:00 +18°C° 0 mm 3 mps 770 mmHg 65%
    03:00 +17°C° 0 mm 2 mps 770 mmHg 65%
    04:00 +17°C° 0 mm 2 mps 770 mmHg 65%
    05:00 +17°C° 0 mm 2 mps 770 mmHg 65%
    06:00 +17°C° 0 mm 2 mps 770 mmHg 66%
    07:00 +18°C° 0 mm 3 mps 771 mmHg 62%
    08:00 +19°C° 0 mm 3 mps 771 mmHg 59%
    09:00 +20°C° 0 mm 4 mps 771 mmHg 56%
    10:00 +20°C° 0 mm 4 mps 771 mmHg 53%
    11:00 +21°C° 0 mm 4 mps 770 mmHg 50%
    12:00 +22°C° 0 mm 4 mps 770 mmHg 48%
    13:00 +22°C° 0 mm 5 mps 770 mmHg 49%
    14:00 +22°C° 0 mm 5 mps 770 mmHg 50%
    15:00 +22°C° 0 mm 5 mps 769 mmHg 52%
    16:00 +21°C° 0 mm 5 mps 769 mmHg 57%
    17:00 +20°C° 0 mm 6 mps 770 mmHg 63%
    18:00 +20°C° 0 mm 6 mps 770 mmHg 69%
    19:00 +19°C° 0 mm 6 mps 770 mmHg 70%
    20:00 +19°C° 0 mm 6 mps 770 mmHg 72%
    21:00 +19°C° 0 mm 6 mps 769 mmHg 74%
    22:00 +19°C° 0 mm 6 mps 769 mmHg 75%
    23:00 +19°C° 0 mm 6 mps 769 mmHg 75%

    30 October, Tuesday

    Time Temperature Precipitation Wind Pressure Humidity
    00:00 +17°C° 0 mm 6 mps 769 mmHg 76%
    01:00 +17°C° 0 mm 6 mps 768 mmHg 77%
    02:00 +17°C° 0 mm 6 mps 768 mmHg 78%
    03:00 +17°C° 0 mm 6 mps 768 mmHg 78%
    04:00 +17°C° 0 mm 6 mps 768 mmHg 79%
    05:00 +17°C° 0 mm 6 mps 768 mmHg 80%
    06:00 +17°C° 0 mm 7 mps 768 mmHg 80%
    07:00 +18°C° 0 mm 7 mps 767 mmHg 77%
    08:00 +18°C° 0 mm 7 mps 767 mmHg 73%
    09:00 +20°C° 0 mm 7 mps 767 mmHg 70%
    10:00 +21°C° 0 mm 7 mps 767 mmHg 66%
    11:00 +21°C° 0 mm 7 mps 767 mmHg 62%
    12:00 +22°C° 0 mm 7 mps 766 mmHg 59%
    13:00 +22°C° 0 mm 7 mps 766 mmHg 58%
    14:00 +22°C° 0 mm 7 mps 766 mmHg 58%
    15:00 +22°C° 0 mm 7 mps 765 mmHg 58%
    16:00 +22°C° 0 mm 7 mps 765 mmHg 62%
    17:00 +21°C° 0 mm 7 mps 765 mmHg 67%
    18:00 +20°C° 0 mm 7 mps 765 mmHg 72%
    19:00 +20°C° 0 mm 6 mps 765 mmHg 73%
    20:00 +20°C° 0 mm 6 mps 765 mmHg 75%
    21:00 +20°C° 0 mm 6 mps 765 mmHg 77%
    22:00 +19°C° 0 mm 5 mps 765 mmHg 78%
    23:00 +19°C° 0 mm 5 mps 765 mmHg 80%
    Show more